Location: Beccas
(43.4309°N, 0.1528°E)
Time: 20:23:23
(UTC+00:00)

CSL-04 Debris - Pass Details

Date: 15 October 2021
Orbit: 827 x 847 km, 98.9° (Epoch: 29 November)

Event Time Altitude Azimuth Distance (km) Brightness Sun altitude
Exits shadow 19:24:27 29° 168° (SSE) 1,469 5.2 -24.0°
Maximum altitude 19:27:18 86° 256° (WSW) 837 4.1 -24.5°
Drops below altitude 10° 19:32:43 10° 345° (NNW) 2,445 6.9 -25.5°
Sets 19:35:05 0° 346° (NNW) 3,385 7.7 -25.9°
